Location: Bannatyne
(13.0833°N, 59.5333°W)
Time: 19:01:50
(UTC+00:00)

Vanguard 2 - All Passes

Search period start: 19 January 2020 00:00
Search period end: 29 January 2020 00:00
Orbit: 553 x 2938 km, 32.9° (Epoch: 18 January)

Date Brightness Start Highest point End Pass type
(mag) Time Alt. Az. Time Alt. Az. Time Alt. Az.
19 Jan - 00:24:54 10° WNW 00:29:14 61° SSW 00:35:34 10° SE visible
19 Jan - 02:35:53 10° SW 02:39:07 14° SSW 02:43:02 10° S night (unlit)
19 Jan - 11:32:20 10° SSW 11:45:34 27° SSE 11:55:54 10° E daylight
19 Jan - 13:42:51 10° SW 13:58:10 68° SSE 14:07:32 10° ENE daylight
19 Jan - 15:57:30 10° W 16:08:30 44° NNW 16:15:14 10° NE daylight
19 Jan - 18:15:41 10° NW 18:18:27 12° NNW 18:20:49 10° N daylight
19 Jan - 22:35:28 10° NNW 22:38:56 29° NNE 22:42:55 10° E visible
20 Jan - 00:43:09 10° W 00:47:17 35° SSW 00:53:08 10° SE visible
20 Jan - 09:43:48 10° S 09:49:39 12° SSE 09:55:16 10° SE visible
20 Jan - 11:49:13 10° SSW 12:04:11 36° SSE 12:15:16 10° E daylight
20 Jan - 14:00:55 10° SW 14:16:19 87° SSE 14:25:34 10° ENE daylight
20 Jan - 16:16:48 10° W 16:26:32 33° NNW 16:32:49 10° NNE daylight
20 Jan - 18:36:19 10° NNW 18:36:57 10° NNW 18:37:33 10° N daylight
20 Jan - 22:53:01 10° NW 22:56:52 53° NNE 23:01:28 10° ESE visible
21 Jan - 01:01:54 10° WSW 01:05:29 21° SSW 01:10:10 10° SSE visible
21 Jan - 09:58:29 10° S 10:08:49 18° SSE 10:18:14 10° ESE visible
21 Jan - 12:06:28 10° SW 12:22:40 48° SSE 12:34:06 10° ENE daylight
21 Jan - 14:19:20 10° WSW 14:34:23 74° NNW 14:43:26 10° NE daylight
21 Jan - 16:36:25 10° WNW 16:44:43 25° NNW 16:50:24 10° NNE daylight
21 Jan - 21:03:58 10° NNW 21:06:12 14° NNE 21:08:20 10° NE daylight
21 Jan - 23:10:50 10° WNW 23:14:45 80° SSW 23:19:36 10° SE visible
22 Jan - 01:21:52 10° SW 01:23:49 12° SSW 01:26:02 10° S visible
22 Jan - 10:14:36 10° SSW 10:27:40 25° SSE 10:39:06 10° E daylight
22 Jan - 12:24:01 10° SW 12:40:59 62° SSE 12:52:32 10° ENE daylight
22 Jan - 14:38:06 10° WSW 14:52:27 57° NNW 15:01:12 10° NE daylight
22 Jan - 16:56:12 10° WNW 17:03:02 20° NNW 17:08:01 10° NNE daylight
22 Jan - 21:21:06 10° NNW 21:24:25 22° NNE 21:27:33 10° ENE daylight
22 Jan - 23:28:57 10° WNW 23:32:42 40° SSW 23:37:17 10° SE visible
23 Jan - 10:31:16 10° SSW 10:46:17 33° SE 10:58:56 10° E daylight
23 Jan - 12:41:54 10° SW 12:59:13 78° SE 13:10:44 10° ENE daylight
23 Jan - 14:57:14 10° W 15:10:33 45° NNW 15:18:53 10° NE daylight
23 Jan - 17:16:01 10° NW 17:21:31 17° NNW 17:25:45 10° NNE daylight
23 Jan - 19:31:09 10° NNW 19:32:46 11° N 19:34:16 10° NNE daylight
23 Jan - 21:38:35 10° NW 21:42:30 37° NNE 21:46:14 10° E daylight
23 Jan - 23:47:35 10° W 23:50:43 21° SSW 23:54:26 10° SSE visible
24 Jan - 08:42:26 10° S 08:50:38 15° SSE 08:58:50 10° ESE visible
24 Jan - 10:48:20 10° SSW 11:04:44 43° SE 11:18:05 10° E daylight
24 Jan - 13:00:06 10° WSW 13:17:23 85° NNW 13:28:44 10° NE daylight
24 Jan - 15:16:40 10° W 15:28:45 36° NNW 15:36:36 10° NE daylight
24 Jan - 17:35:35 10° NW 17:40:08 15° NNW 17:43:46 10° NNE daylight
24 Jan - 19:48:20 10° NNW 19:51:18 15° NNE 19:53:50 10° NE daylight
24 Jan - 21:56:19 10° NW 22:00:28 73° NNE 22:04:29 10° ESE daylight
25 Jan - 00:07:29 10° SW 00:08:50 11° SSW 00:10:17 10° S visible
25 Jan - 08:57:53 10° S 09:09:29 21° SE 09:20:52 10° ESE visible
25 Jan - 11:05:42 10° SW 11:23:04 55° SE 11:36:48 10° ENE daylight
25 Jan - 13:18:37 10° WSW 13:35:32 69° NNW 13:46:36 10° NE daylight
25 Jan - 15:36:22 10° WNW 15:47:07 29° NNW 15:54:21 10° NE daylight
25 Jan - 17:54:41 10° NW 17:58:49 14° N 18:02:10 10° NNE daylight
25 Jan - 20:05:45 10° NNW 20:09:43 21° NNE 20:12:56 10° ENE daylight
25 Jan - 22:14:20 10° WNW 22:18:21 54° SSW 22:22:20 10° SE visible
26 Jan - 09:14:14 10° SSW 09:28:03 29° SE 09:41:24 10° E visible
26 Jan - 11:23:22 10° SW 11:41:19 70° SE 11:55:10 10° ENE daylight
26 Jan - 13:37:30 10° WSW 13:53:43 56° NNW 14:04:25 10° NE daylight
26 Jan - 15:56:11 10° WNW 16:05:38 24° NNW 16:12:13 10° NNE daylight
26 Jan - 18:13:12 10° NW 18:17:30 15° N 18:20:56 10° NE daylight
26 Jan - 20:23:19 10° NW 20:27:59 31° NNE 20:31:39 10° E daylight
26 Jan - 22:32:46 10° W 22:36:12 26° SW 22:39:40 10° SSE visible
27 Jan - 07:29:51 10° SSE 07:32:35 11° SE 07:35:23 10° SE visible
27 Jan - 09:31:04 10° SSW 09:46:26 38° SE 10:01:02 10° E visible
27 Jan - 11:41:20 10° SW 11:59:32 85° SE 12:13:19 10° ENE daylight
27 Jan - 13:56:43 10° W 14:12:00 45° NNW 14:22:13 10° NE daylight
27 Jan - 16:15:55 10° WNW 16:24:17 22° NNW 16:30:17 10° NE daylight
27 Jan - 18:31:18 10° NW 18:36:10 18° N 18:39:53 10° NE daylight
27 Jan - 20:41:03 10° NW 20:46:06 54° NNE 20:50:00 10° ESE daylight
27 Jan - 22:52:05 10° WSW 22:54:06 13° SW 22:56:07 10° S visible
28 Jan - 07:42:38 10° S 07:51:24 16° SE 08:00:46 10° ESE visible
28 Jan - 09:48:13 10° SSW 10:04:41 49° SE 10:20:04 10° ENE visible
28 Jan - 11:59:36 10° WSW 12:17:45 79° NNW 12:31:20 10° NE daylight
28 Jan - 14:16:15 10° W 14:30:26 38° NNW 14:40:04 10° NE daylight
28 Jan - 16:35:22 10° NW 16:43:03 20° N 16:48:36 10° NE daylight
28 Jan - 18:49:09 10° NW 18:54:44 23° NNE 18:58:47 10° ENE daylight
28 Jan - 20:59:01 10° WNW 21:04:03 80° SSW 21:08:00 10° SE daylight
